Evans Head Observation History
Time Wind Speed Temp Pressure Rel. Hum Rain
30/11:30am N 6-9 kts 27.7°c 1016.6 hPa 64% 0.0mm
30/11:00am NW 4-7 kts 25.9°c 1016.8 hPa 69% 0.0mm
30/10:30am WNW 5-7 kts 25.0°c 1016.9 hPa 70% 0.0mm
30/10:00am WNW 5-8 kts 23.9°c 1016.7 hPa 75% 0.0mm
30/09:30am NW 3-6 kts 23.0°c 1016.7 hPa 76% 0.0mm
30/09:00am NW 6-9 kts 22.0°c 1016.8 hPa 84% 1.2mm
30/08:30am NW 4-6 kts 20.4°c 1016.7 hPa 95% 1.2mm
30/08:00am WNW 5-7 kts 18.8°c 1016.5 hPa 96% 1.2mm
30/07:30am NW 5-7 kts 17.1°c 1016.2 hPa 95% 1.2mm
30/07:00am NW 5-6 kts 17.1°c 1016.0 hPa 94% 1.2mm
30/06:30am W 6-7 kts 18.2°c 1015.8 hPa 95% 1.2mm
30/06:00am W 6-7 kts 18.0°c 1015.7 hPa 95% 1.2mm
30/05:30am W 6-7 kts 18.0°c 1015.6 hPa 95% 1.2mm
30/05:00am W 6-7 kts 18.2°c 1015.7 hPa 95% 1.2mm
30/04:30am WNW 6-7 kts 18.2°c 1015.9 hPa 93% 1.2mm
30/04:00am W 5-6 kts 18.9°c 1016.1 hPa 93% 1.2mm
30/03:30am W 5-6 kts 19.1°c 1016.2 hPa 91% 1.2mm
30/03:00am W 6-7 kts 19.2°c 1016.6 hPa 92% 1.2mm
30/02:30am W 7-8 kts 19.2°c 1017.1 hPa 92% 1.2mm
30/02:00am W 7 kts 19.3°c 1017.2 hPa 93% 1.2mm
30/01:30am WSW 6-7 kts 19.5°c 1017.5 hPa 92% 1.2mm
30/01:00am WSW 6-7 kts 19.7°c 1017.7 hPa 91% 1.0mm
30/12:30am WSW 6-8 kts 19.9°c 1017.8 hPa 92% 1.0mm
30/12:00am WSW 6-9 kts 19.8°c 1018.1 hPa 92% 1.0mm
Time Wind Speed Temp Pressure Rel. Hum Rain
29/11:30pm WSW 7-8 kts 20.0°c 1018.3 hPa 90% 0.8mm
29/11:00pm WSW 6-7 kts 20.6°c 1018.5 hPa 84% 0.6mm
29/10:30pm WSW 4-5 kts 20.9°c 1018.6 hPa 84% 0.6mm
29/10:00pm SW 3-5 kts 21.1°c 1019.0 hPa 83% 0.6mm
29/09:30pm SE 6-8 kts 21.0°c 1018.8 hPa 84% 0.6mm
29/09:00pm SE 7-9 kts 21.0°c 1018.5 hPa 85% 0.6mm
29/08:30pm SE 8-10 kts 21.4°c 1018.4 hPa 83% 0.6mm
29/08:00pm SE 7-9 kts 21.6°c 1018.4 hPa 79% 0.6mm
29/07:30pm SE 7-9 kts 21.5°c 1018.2 hPa 78% 0.6mm
29/07:00pm ESE 6-8 kts 21.6°c 1017.9 hPa 81% 0.6mm
29/06:30pm ESE 6-7 kts 21.9°c 1017.6 hPa 80% 0.6mm
29/06:00pm ESE 7-10 kts 22.8°c 1017.4 hPa 76% 0.6mm
29/05:30pm SE 7-11 kts 23.6°c 1017.2 hPa 73% 0.6mm
29/05:00pm SE 9-13 kts 24.3°c 1016.9 hPa 72% 0.6mm
29/04:30pm SSE 10-15 kts 24.2°c 1017.0 hPa 72% 0.6mm
29/04:00pm SSE 7-9 kts 24.7°c 1017.3 hPa 76% 0.6mm
29/03:30pm SSE 8-11 kts 25.0°c 1017.4 hPa 73% 0.6mm
29/03:00pm SSE 7-11 kts 24.9°c 1017.6 hPa 72% 0.6mm
29/02:30pm SSE 6-8 kts 25.5°c 1017.9 hPa 72% 0.6mm
29/02:00pm SE 5-8 kts 23.4°c 1018.1 hPa 72% 0.6mm
29/01:30pm E 4-7 kts 22.8°c 1018.7 hPa 77% 0.6mm
29/01:00pm ESE 5-8 kts 22.1°c 1019.0 hPa 82% 0.6mm
29/12:30pm ESE 9-11 kts 22.4°c 1019.3 hPa 75% 0.6mm
29/12:00pm SE 8-11 kts 23.2°c 1019.5 hPa 78% 0.6mm
29/11:30am SE 9-13 kts 24.2°c 1019.6 hPa 76% 0.6mm
29/11:00am SSE 7-10 kts 21.8°c 1019.7 hPa 89% 0.6mm
29/10:30am S 4-7 kts 22.9°c 1019.9 hPa 82% 0.6mm
29/10:00am SSW 3-5 kts 21.5°c 1019.9 hPa 91% 0.6mm
29/09:30am CALM 0-4 kts 20.3°c 1020.0 hPa 97% 0.6mm
29/09:00am W 4-5 kts 19.7°c 1019.9 hPa 97% 3.4mm
29/08:30am WSW 4-6 kts 19.6°c 1019.6 hPa 97% 3.4mm
29/08:00am WSW 5-6 kts 19.0°c 1019.6 hPa 97% 3.4mm
29/07:30am SW 5-6 kts 18.8°c 1019.3 hPa 97% 3.4mm
29/07:00am SSW 7-9 kts 18.7°c 1019.0 hPa 97% 3.0mm
29/06:30am SW 6-7 kts 18.5°c 1018.7 hPa 96% 0.2mm
29/06:00am WSW 5-6 kts 18.5°c 1018.4 hPa 96% 0.2mm
29/05:30am WSW 6-7 kts 18.5°c 1018.0 hPa 96% 0.2mm
29/05:00am SSW 2-4 kts 18.7°c 1018.2 hPa 95% 0.2mm
29/04:30am S 3-4 kts 18.6°c 1018.1 hPa 95% 0.2mm
29/04:00am SW 5-6 kts 18.9°c 1018.2 hPa 95% 0.2mm
29/03:30am WSW 5-6 kts 19.1°c 1018.3 hPa 95% 0.2mm
29/03:00am NNW 3-5 kts 18.9°c 1018.5 hPa 95% 0.2mm
29/02:30am NW 4-6 kts 19.2°c 1018.7 hPa 95% 0.0mm
29/02:00am W 5-7 kts 19.3°c 1018.7 hPa 94% 0.0mm
29/01:30am W 6-7 kts 19.3°c 1019.0 hPa 94% 0.0mm
29/01:00am WNW 6-7 kts 19.4°c 1019.2 hPa 94% 0.0mm
29/12:30am WNW 4-5 kts 19.9°c 1019.3 hPa 93% 0.0mm
29/12:00am WNW 3-6 kts 20.0°c 1019.3 hPa 89% 0.0mm
Time Wind Speed Temp Pressure Rel. Hum Rain
28/11:30pm N 3-5 kts 19.9°c 1019.5 hPa 86% 0.0mm
28/11:00pm NE 3-4 kts 20.9°c 1019.8 hPa 83% 0.0mm
28/10:30pm N 3-5 kts 20.7°c 1020.0 hPa 84% 0.0mm
28/10:00pm NE 3-4 kts 20.7°c 1020.1 hPa 83% 0.0mm
28/09:30pm N 4-5 kts 20.0°c 1019.9 hPa 84% 0.0mm
28/09:00pm NNE 5-8 kts 21.0°c 1019.5 hPa 78% 0.0mm
28/08:30pm ENE 5-7 kts 21.4°c 1019.6 hPa 80% 0.0mm
28/08:00pm NE 6-10 kts 21.4°c 1019.3 hPa 80% 0.0mm
28/07:30pm ENE 9-13 kts 22.0°c 1019.1 hPa 81% 0.0mm
28/07:00pm E 7-12 kts 21.9°c 1018.9 hPa 77% 0.0mm
28/06:30pm E 9-13 kts 22.1°c 1018.9 hPa 81% 0.0mm
28/06:00pm ESE 8-12 kts 22.3°c 1018.7 hPa 82% 0.0mm
28/05:30pm E 9-13 kts 22.9°c 1018.3 hPa 77% 0.0mm
28/05:00pm E 10-14 kts 23.0°c 1018.4 hPa 76% 0.0mm
28/04:30pm E 7-11 kts 22.7°c 1018.5 hPa 73% 0.0mm
28/04:00pm E 6-9 kts 23.2°c 1018.4 hPa 71% 0.0mm
28/03:30pm SSE 13-18 kts 24.1°c 1018.7 hPa 76% 0.0mm
28/03:00pm SSE 15-21 kts 24.9°c 1018.8 hPa 73% 0.0mm
28/02:30pm SSE 16-21 kts 23.9°c 1018.8 hPa 75% 0.0mm
28/02:00pm S 15-21 kts 24.9°c 1019.1 hPa 76% 0.0mm
28/01:30pm S 15-21 kts 23.8°c 1019.6 hPa 76% 0.0mm
28/01:00pm S 16-21 kts 22.3°c 1020.0 hPa 81% 0.0mm
28/12:30pm S 16-21 kts 23.3°c 1020.3 hPa 80% 0.0mm
28/12:00pm S 15-21 kts 23.2°c 1020.4 hPa 77% 0.0mm
28/11:30am SSW 10-20 kts 22.4°c 1020.8 hPa 76% 0.0mm
28/11:00am SSW 11-16 kts 22.5°c 1021.0 hPa 72% 0.0mm
28/10:30am SSW 12-17 kts 23.0°c 1021.0 hPa 71% 0.0mm
28/10:00am SSW 12-19 kts 22.0°c 1021.0 hPa 70% 0.0mm
28/09:30am SSW 11-16 kts 21.2°c 1021.0 hPa 71% 0.0mm
28/09:00am SSW 11-20 kts 20.6°c 1020.7 hPa 70% 1.8mm
28/08:30am SW 10-16 kts 19.0°c 1020.6 hPa 72% 1.8mm
28/08:00am WSW 9-14 kts 17.6°c 1020.4 hPa 73% 1.8mm
28/07:30am WSW 11-16 kts 16.8°c 1020.1 hPa 75% 1.8mm
28/07:00am SW 11-16 kts 16.9°c 1020.1 hPa 74% 1.8mm
28/06:30am SW 10-14 kts 16.9°c 1019.9 hPa 74% 1.8mm
28/06:00am SW 11-17 kts 17.1°c 1019.8 hPa 73% 1.8mm
28/05:30am SW 11-15 kts 17.3°c 1019.7 hPa 73% 1.8mm
28/05:00am SW 12-16 kts 17.4°c 1019.6 hPa 73% 1.8mm
28/04:30am SW 11-15 kts 17.4°c 1019.7 hPa 73% 1.8mm
28/04:00am SW 11-15 kts 17.5°c 1019.7 hPa 74% 1.8mm
28/03:30am SW 11-17 kts 17.9°c 1019.9 hPa 74% 1.8mm
28/03:00am SW 11-15 kts 17.7°c 1020.2 hPa 75% 1.8mm
28/02:30am SW 12-18 kts 18.0°c 1020.4 hPa 75% 1.8mm
28/02:00am SW 12-18 kts 17.9°c 1020.7 hPa 77% 1.8mm
28/01:30am SW 12-17 kts 17.9°c 1020.9 hPa 81% 1.8mm
28/01:00am SW 11-17 kts 17.7°c 1021.2 hPa 85% 1.8mm
28/12:30am SW 13-16 kts 17.9°c 1021.3 hPa 87% 1.6mm
28/12:00am SW 11-15 kts 17.9°c 1021.5 hPa 89% 1.6mm